User: anonymous
Location: Melbourne
(37.8170°S, 144.9670°E)
Time: 05:14:02
(UTC+10:00)
Language:

ADEOS Rocket - Orbit

View from above orbital plane
View from above orbital plane
View from above satellite
View from above satellite

Ground track
Ground track

The orbit data is extracted from the following two-line orbital elements,

1 24279U 96046C   14206.09781538 -.00000010  00000-0  30047-4 0  6923
2 24279 098.7452 268.9866 0301285 108.2848 310.3426 13.46988285881792
Epoch (UTC): 25 July 2014 02:20:51
Eccentricity: 0.0301285
inclination: 98.7452°
perigee height: 858 km
apogee height: 1308 km
right ascension of ascending node: 268.9866°
argument of perigee: 108.2848°
revolutions per day: 13.46988285
mean anomaly at epoch: 310.3426°
orbit number at epoch: 88179

The dashed part of the orbit path shows where the satellite is in the earth's shadow,  

DLR